Lapse_Rate
5.5 6.0 5.9 5.7 5.9 5.8 5.7 5.6 5.5 5.4 5.5 5.4 5.0 4.6 5.5 5.8 6.1 6.6 6.9 6.9 6.8 6.9 7.1 7.1 7.2 7.3 7.4 7.5 7.4 7.2 7.0 6.8 6.7 6.6 6.4 6.4 6.3 6.3
5.6 5.7 5.6 5.8 5.4 5.6 5.6 5.6 5.5 5.3 5.4 5.4 5.5 5.3 6.0 6.6 6.6 6.9 7.0 6.9 7.0 7.2 7.2 7.2 7.5 7.8 8.0 7.8 7.4 7.1 6.8 6.8 6.7 6.6 6.6 6.6 6.6 6.5
5.9 5.4 5.8 5.5 5.5 5.4 5.4 5.4 5.4 5.4 5.4 5.8 5.6 5.5 6.1 7.0 7.1 7.0 6.9 7.0 7.1 7.2 7.3 7.6 7.9 8.1 7.8 7.5 7.3 7.0 6.7 6.6 6.4 6.3 6.3 6.3 6.2 6.2
5.7 5.6 5.6 5.4 5.4 5.4 5.3 5.5 5.5 5.4 5.4 5.7 6.3 6.5 6.1 6.2 7.1 7.0 6.9 7.0 7.1 7.2 7.3 7.7 8.0 7.9 7.6 7.3 6.9 6.7 6.5 6.2 6.1 6.1 6.1 6.1 6.0 5.9
5.6 5.6 5.5 5.1 5.0 5.3 5.4 5.5 5.5 5.4 5.6 5.6 6.6 6.7 6.4 6.2 7.0 6.9 6.9 7.1 7.1 7.3 7.5 7.8 8.1 7.8 7.6 7.2 6.8 6.4 6.1 6.0 5.8 5.8 6.0 6.2 6.2 6.2
5.8 5.5 5.2 5.0 5.0 5.3 5.4 5.4 5.4 5.7 5.9 6.3 6.8 6.7 6.2 6.2 6.1 6.5 7.0 7.0 7.2 7.4 7.4 7.8 8.1 7.8 7.4 7.0 6.6 6.2 6.1 5.9 5.8 5.8 5.9 6.2 6.3 6.3
5.6 5.6 5.3 5.3 5.2 5.3 5.3 5.4 5.3 5.9 6.4 6.8 7.0 7.1 7.0 6.2 5.9 5.8 7.1 7.1 7.3 7.5 7.6 7.9 7.8 7.6 7.0 6.7 6.5 6.3 6.1 6.1 6.0 6.0 6.1 6.2 6.2 6.2
5.5 5.3 5.1 5.2 5.4 5.3 5.4 5.5 5.8 6.4 6.7 6.9 7.1 7.0 7.0 6.0 5.8 6.5 7.1 7.1 7.3 7.7 7.6 8.0 7.8 7.8 7.2 6.7 6.3 6.1 6.0 6.1 6.2 6.2 6.2 6.1 6.0 5.9
4.9 4.9 5.0 5.0 5.0 5.2 5.4 5.7 6.2 6.7 6.9 7.0 7.0 6.9 6.8 6.8 6.7 6.9 7.1 7.1 7.4 7.6 7.6 8.0 7.8 7.8 7.4 6.9 6.4 6.1 5.9 6.1 6.2 6.2 6.2 5.9 5.8 5.6
4.8 4.9 5.0 5.1 5.1 5.1 5.6 5.8 6.4 6.7 6.9 7.0 6.9 7.0 6.9 6.8 6.9 7.0 7.2 7.2 7.5 7.6 7.7 7.9 7.9 7.7 7.6 6.8 6.5 6.2 6.0 6.2 6.3 6.3 6.2 6.0 5.8 5.7
5.1 5.1 5.1 5.2 5.3 5.4 5.8 6.1 6.5 6.7 6.8 6.8 6.9 7.0 7.0 7.0 7.0 7.1 7.2 7.2 7.5 7.6 7.7 7.7 7.9 7.7 7.8 7.2 6.5 6.2 6.1 6.3 6.3 6.2 6.2 6.2 6.0 6.0
5.4 5.4 5.3 5.3 5.5 5.7 5.8 6.1 6.2 6.7 6.7 6.7 7.2 7.5 7.2 7.2 7.2 7.2 7.2 7.2 7.3 7.5 7.5 7.8 7.8 7.6 7.8 7.6 6.8 6.2 6.3 6.2 6.2 6.2 6.3 6.3 6.3 6.5
5.3 5.3 5.2 5.2 5.4 5.8 5.8 6.0 6.4 6.9 7.0 7.2 7.6 7.5 7.3 7.3 7.2 7.4 7.4 7.4 7.3 7.4 7.4 7.6 7.7 7.6 7.4 7.4 7.1 6.6 6.6 6.4 6.4 6.4 6.6 6.8 7.0 7.0
5.5 5.4 5.5 5.7 5.8 5.8 5.8 6.1 6.7 7.0 7.3 7.7 7.9 7.9 7.6 7.3 7.3 7.2 7.2 7.3 7.3 7.3 7.4 7.5 7.7 7.6 7.6 7.6 7.4 7.0 6.8 6.4 6.5 6.7 7.1 7.4 7.6 7.6
5.3 5.4 5.7 5.9 6.1 6.0 5.9 6.6 6.8 6.8 7.9 8.0 8.0 7.7 7.7 7.4 7.3 7.3 7.3 7.2 7.3 7.3 7.3 7.4 7.5 7.6 7.6 7.4 7.5 7.1 7.1 6.7 6.8 7.1 7.5 7.9 8.0 7.8
5.2 5.6 6.0 6.0 6.1 6.2 6.5 6.4 6.8 6.9 7.4 7.8 7.9 7.8 7.8 7.6 7.4 7.3 7.4 7.4 7.4 7.4 7.3 7.3 7.4 7.5 7.7 7.4 7.3 7.2 7.1 7.2 7.3 7.6 7.8 7.9 7.9 7.9
5.3 5.8 6.1 6.1 6.3 6.5 6.6 6.5 6.7 6.9 7.3 7.7 7.7 7.6 7.6 7.4 7.4 7.3 7.5 7.5 7.4 7.4 7.4 7.2 7.3 7.5 7.6 7.4 7.3 7.2 7.2 7.3 7.5 7.7 7.8 7.7 7.7 7.8
5.7 5.7 5.7 6.0 6.2 6.1 6.2 6.4 6.8 6.8 7.2 7.4 7.5 7.4 7.3 7.2 7.3 7.3 7.5 7.5 7.4 7.4 7.4 7.3 7.3 7.4 7.5 7.7 7.4 7.2 7.1 7.3 7.5 7.6 7.7 7.6 7.5 7.6
5.6 5.5 5.4 5.9 6.1 6.4 6.4 6.4 6.7 7.0 7.2 7.3 7.2 7.3 7.2 7.2 7.3 7.4 7.5 7.5 7.4 7.3 7.2 7.3 7.3 7.4 7.5 7.4 7.3 7.1 7.1 7.2 7.3 7.5 7.5 7.6 7.5 7.5
5.2 5.1 5.3 5.8 6.2 6.5 6.8 6.6 7.0 7.2 7.4 7.5 7.2 7.2 7.3 7.3 7.4 7.5 7.5 7.5 7.3 7.2 7.2 7.2 7.3 7.4 7.5 7.4 7.3 7.0 7.0 7.0 7.1 7.3 7.4 7.4 7.4 7.3
5.4 5.2 5.5 6.0 6.3 6.6 6.7 6.7 7.1 7.3 7.5 7.5 7.4 7.4 7.5 7.4 7.5 7.6 7.6 7.5 7.3 7.2 7.1 7.1 7.2 7.3 7.4 7.5 7.4 6.9 6.8 6.9 6.9 7.1 7.1 7.2 7.2 7.1
5.4 5.6 5.6 6.1 6.4 6.6 6.8 7.2 7.5 7.4 7.4 7.6 7.6 7.7 7.6 7.5 7.6 7.7 7.6 7.5 7.3 7.2 7.1 7.1 7.1 7.3 7.4 7.4 7.4 7.2 6.9 6.9 6.8 6.8 6.9 7.0 7.1 7.0
5.4 5.6 5.7 5.9 6.4 6.7 7.1 7.6 7.9 7.8 7.6 7.7 7.7 7.8 7.8 7.7 7.8 7.8 7.6 7.5 7.4 7.2 7.1 7.1 7.1 7.2 7.3 7.4 7.4 7.3 7.1 6.9 6.8 6.7 6.7 6.7 6.8 6.8
Wind_Speed
5 7 8 6 6 6 5 6 7 9 9 9 8 8 10 13 14 16 19 20 18 23 22 22 23 23 23 24 24 25 26 27 28 29 29 29 29 30
6 10 8 6 7 6 6 7 8 9 11 9 8 9 10 14 15 15 19 19 22 19 20 21 23 23 24 25 26 26 27 28 28 29 29 30 30 30
11 10 11 9 7 7 7 8 8 9 11 11 10 11 9 10 17 18 18 19 20 16 16 21 23 23 25 26 25 24 24 24 25 26 26 29 30 29
11 11 11 8 11 10 9 11 10 10 10 15 13 11 11 10 14 14 17 18 19 18 18 21 23 25 25 23 23 23 24 26 26 27 27 26 28 29
12 11 12 12 12 10 11 10 10 9 11 11 12 10 10 9 11 12 12 16 17 16 20 19 18 21 21 23 25 26 26 27 26 26 26 26 26 27
12 12 13 14 14 14 12 12 11 11 12 11 11 11 10 10 9 10 10 9 10 15 17 17 18 21 24 25 25 25 25 23 23 24 24 23 23 24
13 14 14 15 14 12 11 12 12 12 11 11 11 11 11 11 10 8 9 10 10 9 9 9 14 18 19 17 19 22 17 18 23 26 27 26 25 24
14 15 15 14 13 13 13 14 15 14 14 11 11 11 15 11 9 9 9 9 10 10 9 11 13 11 16 17 11 14 20 22 24 24 25 25 24 23
16 15 15 13 12 15 18 17 16 16 13 15 15 14 15 12 11 11 12 10 10 9 11 11 10 11 15 18 13 16 21 18 18 21 21 20 21 22
16 17 17 18 17 16 16 16 16 13 13 11 14 15 13 12 10 10 11 11 10 10 10 11 10 10 12 19 19 18 13 14 19 20 21 21 22 22
16 17 17 18 19 12 16 18 17 13 14 17 16 15 10 7 10 9 9 10 10 9 9 9 8 11 11 11 12 5 13 19 19 19 22 22 21 22
16 17 16 19 19 11 15 15 14 16 11 13 12 14 17 17 19 15 10 9 10 10 7 6 9 11 9 9 6 17 16 17 17 21 20 20 19 16
12 13 13 13 16 18 19 16 15 14 12 12 10 10 10 10 8 17 16 10 9 10 8 7 9 10 10 11 9 9 11 11 16 18 16 15 14 16
14 11 13 16 19 19 15 21 20 12 9 8 9 10 10 9 9 9 14 14 14 12 15 13 9 10 11 12 12 10 9 10 13 9 9 15 15 19
13 17 24 24 23 17 20 21 17 11 8 8 10 10 10 10 10 9 12 13 15 16 15 14 9 11 10 11 12 11 10 10 9 8 8 9 8 9
17 14 14 17 18 16 13 11 10 8 9 9 11 10 9 8 8 7 8 7 8 8 11 12 13 11 10 10 11 11 9 8 9 8 6 7 8 9
17 12 12 12 12 11 9 10 7 7 8 9 9 9 8 8 8 8 8 7 8 8 7 6 10 11 10 13 10 9 9 8 7 9 8 8 8 5
11 10 11 11 11 12 11 9 8 8 7 7 9 9 8 8 9 8 7 7 8 8 7 6 7 7 9 9 15 7 7 7 8 9 8 6 8 6
9 11 11 12 12 12 9 8 7 7 7 8 9 8 8 8 8 7 7 7 7 7 7 6 6 6 8 7 2 11 6 7 7 8 7 7 8 8
10 11 12 12 12 12 2 3 5 4 6 7 8 8 8 8 7 7 8 8 7 7 6 6 6 6 7 6 6 8 10 6 6 7 8 8 8 9
11 11 11 12 12 12 11 8 5 6 6 6 7 7 7 8 8 8 8 8 6 6 6 6 4 3 6 6 6 7 1 9 5 5 8 8 7 4
10 11 11 11 11 11 12 11 10 5 6 6 7 7 7 8 8 8 7 6 7 7 7 4 4 5 5 6 7 6 5 3 7 8 2 3 4 5
10 11 10 11 10 11 10 11 11 10 8 6 6 7 7 8 8 8 7 7 6 6 6 5 4 5 5 5 5 6 5 6 4 5 5 2 2 4
Wind_Direction
209 227 237 241 251 260 263 264 269 281 283 288 286 269 269 273 285 291 291 294 307 299 296 296 295 294 295 294 295 294 293 291 289 288 286 286 283 282
226 233 240 250 256 258 254 253 259 269 279 285 291 299 295 285 284 288 284 290 283 282 286 288 291 296 295 293 291 291 290 288 288 287 287 285 283 282
235 236 242 251 258 261 255 259 265 265 273 283 287 288 265 265 285 284 290 292 290 287 290 291 295 296 291 289 289 288 287 287 288 287 286 283 281 281
240 241 248 250 250 257 261 262 264 266 272 282 288 288 280 281 288 288 285 290 289 290 294 294 294 291 288 287 284 284 286 286 285 285 286 285 280 278
248 251 251 253 256 256 260 262 265 264 262 273 283 281 282 280 273 279 286 288 282 286 276 274 282 284 288 285 281 284 282 281 282 281 281 279 278 277
251 254 256 254 258 260 260 261 265 267 270 275 274 276 279 280 275 276 278 292 291 298 291 271 262 273 268 268 274 278 277 278 281 283 282 280 277 273
257 255 257 256 263 265 267 266 268 267 272 277 277 282 277 277 279 297 290 288 292 293 295 293 305 300 294 286 265 257 270 288 290 285 281 277 274 268
264 267 266 236 241 247 239 246 258 268 266 262 267 267 272 279 282 286 287 287 292 299 305 306 303 299 301 292 308 313 294 290 289 289 284 277 273 271
275 275 271 265 244 253 230 225 239 247 254 265 272 264 271 281 283 284 278 282 291 306 302 296 303 300 302 300 286 293 292 289 292 296 292 280 270 268
273 272 272 271 266 247 246 256 252 246 228 232 250 264 271 272 272 278 284 283 282 277 288 295 305 297 306 302 295 279 279 290 299 304 299 293 283 274
278 276 272 271 267 229 245 256 258 258 248 239 261 282 287 269 269 280 269 271 277 288 298 296 299 310 308 306 303 238 296 288 287 289 289 288 285 282
284 280 267 259 265 231 235 240 250 254 252 248 232 235 243 244 230 242 262 268 276 285 287 285 307 306 312 293 306 310 300 299 299 305 300 284 281 287
302 295 289 281 237 243 238 243 239 249 244 252 246 249 245 245 237 219 237 250 266 275 302 307 297 300 294 302 310 302 293 305 307 302 303 301 307 298
299 294 292 303 306 272 238 241 248 225 239 238 228 239 242 242 249 246 249 253 259 272 285 287 283 287 293 294 299 306 302 299 301 306 314 312 305 290
295 292 289 280 279 279 255 249 240 229 218 221 229 232 232 237 236 240 251 263 267 272 274 269 267 279 284 288 295 297 300 307 298 313 320 321 306 296
301 289 292 286 274 267 267 247 230 217 214 218 230 233 234 226 227 234 243 240 253 267 268 263 268 273 278 280 287 291 296 289 309 321 321 307 310 311
297 284 280 282 279 273 256 245 223 205 216 225 233 224 224 220 223 228 233 237 254 268 274 271 265 270 274 274 277 280 285 299 318 319 319 315 308 331
314 300 289 283 277 276 275 252 216 220 224 225 230 226 224 221 223 223 221 227 248 263 271 282 288 292 283 255 233 271 292 314 315 315 319 317 311 340
345 337 329 340 309 278 266 239 221 219 212 228 231 224 217 226 214 220 215 221 240 256 265 270 272 279 290 301 325 237 295 306 314 316 329 331 310 312
344 340 337 335 336 342 348 246 243 240 230 226 230 219 215 216 212 218 221 222 235 249 260 266 262 269 282 306 306 302 215 277 313 324 332 319 291 283
338 336 338 336 337 336 333 316 269 264 246 222 225 223 212 208 213 214 217 217 223 250 258 261 282 25 274 265 257 264 220 212 259 318 334 326 330 330
332 332 333 334 332 333 330 330 331 269 247 237 233 228 208 202 210 210 211 205 204 236 254 272 276 271 270 265 278 297 308 336 242 226 251 7 345 342
328 326 326 325 328 328 330 328 328 329 300 264 250 236 206 200 207 211 206 210 226 228 245 260 268 264 270 278 293 293 302 298 307 299 203 140 320 318